[[{"header":{"parameterUnit":"m.s-1","parameterCategory":1,"la1":30.2991,"la2":30.254,"lo1":-89.0895,"lo2":-89.0444,"dy":0.0017,"dx":0.0017,"nx":28,"ny":28,"refTime":"2024-07-15T03:00:00:Z","depth":0,"parameterNumber":2,"parameterNumberName":"U-component_of_WINDS"},"data":[0,0,0,0,0,0,0,0,0,0,0,0,0,0,0,0,0,0,0,0,0,0,0,0,0,0,0,0,0,0,0,0,0,0,0,0,0,0,0,0,0,0,0,0,0,0,0,0,0,0,0,0,0,0,0,0,0,0,1.6204,1.6203,0,1.6126,1.6125,1.6124,1.6019,1.6018,1.6016,1.6014,1.5937,1.5936,1.5936,0,0,0,0,0,0,0,0,0,0,0,0,0,1.6261,1.626,1.6204,1.6203,1.6202,1.6126,1.6125,1.6124,1.602,1.6018,1.6015,1.6013,1.5937,1.5936,1.5936,0,0,0,0,0,0,0,0,0,0,0,0,0,1.6215,1.626,1.6204,1.6141,1.6134,1.6126,1.6125,1.6124,1.602,1.6017,1.6015,1.6012,1.5937,1.5936,1.5936,1.5984,0,0,1.5934,1.5933,0,0,0,0,0,0,0,0,1.6218,1.6213,1.6151,1.6145,1.6138,1.608,1.6116,1.6077,1.6021,1.6064,1.6014,1.6011,1.5986,1.5982,1.5973,1.598,1.5977,1.5934,1.5933,1.5933,1.5933,0,0,0,0,0,0,0,1.6221,1.6216,1.6173,1.615,1.6142,1.6116,1.6106,1.6108,1.6041,1.606,1.6052,1.6044,1.5982,1.5974,1.597,1.5976,1.5934,1.5933,1.5933,1.5932,1.6015,1.6017,0,0,0,0,0,0,1.6234,1.6219,1.6175,1.6171,1.6172,1.6117,1.6106,1.6101,1.604,1.6029,1.6046,1.6039,1.5976,1.5971,1.5967,1.6017,1.5933,1.5932,1.5932,1.6012,1.6015,1.6018,0,0,0,0,0,0,1.6235,1.6231,1.6179,1.6193,1.6184,1.6118,1.6113,1.6101,1.6092,1.603,1.6018,1.605,1.5974,1.5968,1.5979,1.6013,1.5932,1.5931,1.6009,1.6013,1.6017,1.6119,0,0,0,0,0,0,1.6237,1.6232,1.625,1.6194,1.6184,1.6193,1.6116,1.6101,1.6091,1.6081,1.603,1.6019,1.5971,1.5981,1.5979,1.6011,1.5931,1.6006,1.6011,1.6016,1.6113,1.6126,1.6138,0,0,0,0,0,1.624,1.6284,1.6252,1.6247,1.6205,1.6195,1.6189,1.6133,1.6094,1.6111,1.6071,1.6021,1.601,1.5983,1.598,1.6012,1.6004,1.601,1.6015,1.6107,1.6124,1.6137,0,0,0,0,0,0,1.6348,1.6275,1.6239,1.6266,1.6238,1.6178,1.6198,1.6153,1.6135,1.6127,1.6057,1.6046,1.6066,1.604,1.6012,1.6053,1.5999,1.6004,1.607,1.6085,1.6097,1.6103,1.593,0,0,0,0,0,1.6375,1.6373,1.6309,1.6339,1.6326,1.6265,1.6259,1.6217,1.6184,1.6172,1.6133,1.6104,1.6092,1.6087,1.6074,1.6108,1.6094,1.6128,1.6141,1.6151,1.6157,1.6169,1.6183,1.6037,1.6037,1.6037,0,0,1.6431,1.639,1.6394,1.636,1.6333,1.6331,1.6256,1.6258,1.6256,1.6173,1.618,1.615,1.6112,1.6134,1.6142,1.6113,1.6193,1.6159,1.6168,1.6167,1.6176,1.619,1.6203,1.6041,1.604,1.604,0,0,1.6531,1.6502,1.6521,1.6495,1.6453,1.6411,1.6416,1.6362,1.6338,1.6344,1.6281,1.6277,1.6261,1.6235,1.6221,1.6307,1.6259,1.6304,1.637,1.6383,1.6395,1.6405,1.6433,1.6445,1.631,1.631,1.6311,0,1.6606,1.6601,1.6538,1.6543,1.6529,1.6451,1.6469,1.6447,1.6404,1.6396,1.6364,1.6339,1.6308,1.6322,1.6342,1.6333,1.6335,1.631,1.6398,1.6407,1.6416,1.6442,1.6453,1.6316,1.6315,1.6315,1.6314,0,1.6694,1.6691,1.6712,1.667,1.6658,1.6671,1.6608,1.6603,1.6562,1.6523,1.6528,1.6488,1.6464,1.6464,1.6424,1.647,1.6453,1.6411,1.6355,1.6436,1.646,1.647,1.6324,1.6322,1.632,1.6319,0,0,1.6863,1.6783,1.6792,1.677,1.6717,1.6713,1.6721,1.6695,1.6692,1.6664,1.6667,1.6653,1.6612,1.6595,1.6551,1.6563,1.663,1.6518,1.6516,1.6539,1.6675,1.6707,1.672,1.6598,1.66,1.6601,1.6678,0,1.6953,1.696,1.6901,1.6925,1.692,1.6844,1.6849,1.6817,1.678,1.677,1.6729,1.6719,1.6667,1.6655,1.6663,1.6621,1.6657,1.6614,1.6599,1.66,1.6611,1.6733,1.6768,1.6842,1.6687,1.6689,1.669,0,1.7059,1.7034,1.7057,1.6999,1.6994,1.7001,1.6971,1.6963,1.6923,1.6895,1.6874,1.6822,1.6824,1.677,1.677,1.6743,1.6733,1.671,1.6712,1.6708,1.665,1.6732,1.6865,1.6876,1.6704,1.6703,1.6702,0,1.7178,1.715,1.7159,1.7143,1.7077,1.7082,1.7055,1.7012,1.6999,1.6973,1.6964,1.6939,1.6925,1.6906,1.6848,1.6815,1.6854,1.6797,1.683,1.6832,1.6842,1.6842,1.6975,1.6838,1.6837,1.6837,1.6837,0,1.7284,1.73,1.7211,1.7217,1.7231,1.7163,1.7179,1.7144,1.7106,1.7102,1.7035,1.7033,1.6958,1.6947,1.6902,1.6907,1.6902,1.6878,1.6866,1.6884,1.6887,1.6877,1.687,1.684,1.6839,1.6839,1.6838,0,1.742,1.7361,1.7365,1.73,1.7284,1.7298,1.7241,1.7243,1.72,1.7196,1.7191,1.7124,1.7107,1.7047,1.7017,1.6986,1.7005,1.6982,1.7019,1.701,1.7047,1.7044,1.7177,1.719,1.7046,1.7047,1.7048,0,1.7491,1.7501,1.7436,1.7428,1.7403,1.7392,1.7377,1.7309,1.7296,1.7249,1.7256,1.7233,1.7212,1.7188,1.7137,1.7112,1.7087,1.7135,1.7083,1.7099,1.7086,1.7085,1.7085,1.7147,1.7149,1.715,1.7152,0,1.7623,1.7592,1.7574,1.7545,1.7529,1.7503,1.7473,1.747,1.7393,1.7383,1.7364,1.7347,1.7313,1.7291,1.7257,1.7227,1.7176,1.7168,1.7174,1.7193,1.7212,1.72,1.7048,1.7166,1.7164,1.7163,1.7162,1.7162,1.7728,1.7732,1.7686,1.7666,1.7636,1.7608,1.7606,1.7561,1.7544,1.751,1.747,1.7456,1.7412,1.736,1.7334,1.7321,1.7293,1.7303,1.7305,1.7308,1.7316,1.7215,1.7315,1.7314,1.7314,1.7313,1.7313,0,1.7855,1.782,1.7803,1.7762,1.7746,1.7698,1.7661,1.7651,1.7638,1.7601,1.758,1.7557,1.7533,1.7479,1.745,1.745,1.7425,1.7444,1.7443,1.7437,1.7344,1.734,1.7464,1.7464,1.7464,1.7464,1.7464,1.7464,1.7919,1.7923,1.7886,1.7873,1.7837,1.7821,1.7804,1.7778,1.7747,1.7724,1.7703,1.7667,1.7622,1.7589,1.7565,1.7549,1.7541,1.7568,1.7545,1.7458,1.7444,1.743,1.7427,1.7567,1.7567,1.7639,1.7639,1.764]},{"header":{"parameterUnit":"m.s-1","parameterCategory":1,"la1":30.2991,"la2":30.254,"lo1":-89.0895,"lo2":-89.0444,"dy":0.0017,"dx":0.0017,"nx":28,"ny":28,"refTime":"2024-07-15T03:00:00:Z","depth":0,"parameterNumber":3,"parameterNumberName":"V-component_of_WINDS"},"data":[0,0,0,0,0,0,0,0,0,0,0,0,0,0,0,0,0,0,0,0,0,0,0,0,0,0,0,0,0,0,0,0,0,0,0,0,0,0,0,0,0,0,0,0,0,0,0,0,0,0,0,0,0,0,0,0,0,0,6.0836,6.0837,0,6.093,6.0931,6.0932,6.0884,6.0881,6.0879,6.0876,6.0965,6.0969,6.0974,0,0,0,0,0,0,0,0,0,0,0,0,0,6.0608,6.0612,6.0836,6.0837,6.0839,6.093,6.0931,6.0932,6.0884,6.0881,6.0878,6.0875,6.0963,6.0968,6.0974,0,0,0,0,0,0,0,0,0,0,0,0,0,6.0705,6.0614,6.0836,6.0826,6.0826,6.093,6.0931,6.0933,6.0885,6.0881,6.0877,6.0874,6.0961,6.0968,6.0975,6.1092,0,0,6.0996,6.0999,0,0,0,0,0,0,0,0,6.0699,6.0713,6.0826,6.0827,6.0827,6.0892,6.0883,6.0986,6.0886,6.0862,6.0876,6.0872,6.0943,6.0951,6.0976,6.1096,6.11,6.0997,6.1001,6.1004,6.1006,0,0,0,0,0,0,0,6.0693,6.0709,6.0873,6.0828,6.0828,6.0814,6.0824,6.0902,6.0922,6.0864,6.0861,6.0873,6.0942,6.097,6.0978,6.1101,6.0997,6.1003,6.1007,6.101,6.132,6.1324,0,0,0,0,0,0,6.0687,6.0704,6.087,6.0876,6.0753,6.0821,6.0832,6.0874,6.0921,6.0924,6.0876,6.087,6.096,6.097,6.0981,6.112,6.1004,6.101,6.1014,6.1316,6.1321,6.1325,0,0,0,0,0,0,6.0683,6.0703,6.0866,6.0789,6.0809,6.0829,6.0877,6.0878,6.0906,6.093,6.0932,6.0901,6.0957,6.0971,6.1065,6.1122,6.1014,6.102,6.1311,6.1317,6.1323,6.1399,0,0,0,0,0,0,6.0676,6.0702,6.0748,6.0791,6.0813,6.0951,6.0881,6.0883,6.0919,6.0912,6.0954,6.0957,6.0955,6.1055,6.1072,6.113,6.1025,6.1306,6.1314,6.1321,6.1392,6.1407,6.1421,0,0,0,0,0,6.0669,6.0764,6.0751,6.0771,6.0872,6.0955,6.0967,6.0965,6.0924,6.0969,6.0985,6.0956,6.1114,6.1065,6.1084,6.1145,6.1302,6.1312,6.132,6.1385,6.1404,6.142,0,0,0,0,0,0,6.0725,6.0769,6.0755,6.0868,6.0908,6.0946,6.1003,6.0985,6.1036,6.1027,6.102,6.103,6.1127,6.1146,6.109,6.126,6.1201,6.1215,6.1244,6.1262,6.1277,6.1269,6.1031,0,0,0,0,0,6.0751,6.0817,6.0851,6.0947,6.0969,6.0983,6.1019,6.1014,6.1054,6.107,6.1093,6.1131,6.1189,6.1227,6.1282,6.1395,6.1402,6.1446,6.1461,6.1472,6.1483,6.1543,6.1562,6.1355,6.1355,6.1355,0,0,6.0804,6.0837,6.0878,6.096,6.099,6.1056,6.0997,6.107,6.1118,6.108,6.1171,6.1189,6.123,6.1334,6.1381,6.1352,6.1542,6.1484,6.1493,6.1497,6.1554,6.1574,6.1591,6.1361,6.136,6.1359,0,0,6.0934,6.0967,6.105,6.1083,6.1131,6.114,6.1161,6.1202,6.1213,6.1305,6.1278,6.1334,6.1434,6.1465,6.1494,6.1638,6.1612,6.1655,6.173,6.1788,6.1804,6.1819,6.1868,6.1886,6.1667,6.1667,6.1667,0,6.0994,6.1095,6.1094,6.117,6.1205,6.1178,6.126,6.1291,6.1354,6.1378,6.1346,6.1472,6.1498,6.1608,6.1643,6.1668,6.1689,6.1649,6.1803,6.1817,6.183,6.1877,6.1896,6.1672,6.1671,6.1671,6.167,0,6.1164,6.1234,6.1295,6.136,6.1402,6.148,6.149,6.1533,6.1525,6.1537,6.1629,6.166,6.172,6.1746,6.1738,6.1855,6.1836,6.1804,6.1744,6.1855,6.1898,6.1917,6.1678,6.1677,6.1675,6.1674,0,0,6.133,6.1395,6.1417,6.1446,6.1498,6.155,6.1627,6.1689,6.1725,6.1769,6.1831,6.1918,6.1889,6.1921,6.1916,6.1968,6.2078,6.1929,6.193,6.1954,6.2206,6.2228,6.2249,6.2062,6.2066,6.2069,6.2202,0,6.1462,6.1599,6.1602,6.1726,6.1789,6.1765,6.1831,6.1869,6.1883,6.1936,6.195,6.2011,6.1969,6.1988,6.2039,6.2054,6.2128,6.2044,6.2117,6.212,6.2105,6.2272,6.2296,6.242,6.2219,6.2222,6.2224,0,6.1634,6.1687,6.1819,6.1862,6.1888,6.1948,6.2005,6.2058,6.2099,6.2105,6.2143,6.2131,6.2206,6.2147,6.2249,6.2193,6.2223,6.2235,6.2239,6.2244,6.2177,6.2279,6.246,6.2478,6.2251,6.2249,6.2247,0,6.174,6.1844,6.1935,6.1961,6.2014,6.2056,6.208,6.2118,6.2155,6.2204,6.2227,6.2284,6.2314,6.2356,6.2358,6.2316,6.2461,6.2402,6.2466,6.2466,6.2495,6.2493,6.2681,6.2519,6.2519,6.2518,6.2518,0,6.1886,6.1966,6.1984,6.204,6.2129,6.2131,6.2218,6.2237,6.2272,6.233,6.2312,6.2366,6.2367,6.2421,6.2423,6.2507,6.2521,6.2526,6.2525,6.2526,6.2525,6.2544,6.2534,6.2523,6.2522,6.2521,6.252,0,6.2017,6.2032,6.213,6.2174,6.2186,6.225,6.2285,6.2338,6.2351,6.2424,6.2441,6.246,6.2523,6.253,6.2603,6.2605,6.2705,6.2696,6.2691,6.2689,6.2751,6.2744,6.2956,6.2982,6.2805,6.2807,6.2808,0,6.2108,6.217,6.2221,6.2259,6.2286,6.2348,6.2387,6.2391,6.2431,6.2484,6.2529,6.2592,6.2641,6.2743,6.2762,6.2817,6.2808,6.2878,6.2816,6.2815,6.2806,6.2801,6.2807,6.2889,6.2891,6.2893,6.2894,0,6.2267,6.2272,6.2329,6.239,6.2437,6.2484,6.2528,6.256,6.2569,6.2615,6.2681,6.272,6.2796,6.2857,6.2912,6.2933,6.2915,6.2914,6.2931,6.2932,6.2926,6.2928,6.2722,6.2908,6.2907,6.2906,6.2905,6.2905,6.2379,6.2432,6.2477,6.2541,6.2576,6.2618,6.2669,6.269,6.2746,6.281,6.2809,6.2881,6.292,6.2993,6.3018,6.3073,6.3049,6.3074,6.308,6.3086,6.3091,6.292,6.3083,6.3083,6.3082,6.3082,6.3082,0,6.2535,6.2563,6.2623,6.2686,6.2737,6.2719,6.2767,6.2809,6.2874,6.2914,6.2964,6.304,6.3099,6.3123,6.3181,6.322,6.3213,6.3235,6.323,6.3235,6.311,6.3089,6.324,6.324,6.324,6.324,6.324,6.324,6.2621,6.2711,6.2722,6.2827,6.2854,6.2927,6.2956,6.2994,6.3026,6.3112,6.3162,6.3179,6.3212,6.3272,6.3325,6.3331,6.3351,6.3377,6.3378,6.326,6.3244,6.3229,6.3208,6.3382,6.3382,6.3498,6.3499,6.35]}]]